Weather Roundup
Issued by NWS Springfield, MO

Home | Current Version | Previous Version | Text Only | Print | Product List | Glossary On
Versions: 1 2 3 4 5 6 7 8 9 10 11 12 13 14 15 16 17 18 19 20 21 22 23 24 25 26 27 28 29 30 31 32 33 34 35 36 37 38 39 40 41 42 43 44 45 46 47 48 49 50
000
NZUS99 KSGF 030107
HRRSGF

HOURLY WEATHER
NATIONAL WEATHER SERVICE SPRINGFIELD MO
800 PM CDT SUN AUG 02 2015

......SGF CWA......

CITY           SKY/WX    TMP DP  RH WIND       PRES   REMARKS
SPRINGFIELD    CLEAR     84  67  56 SW6       29.90F
JOPLIN         CLEAR     85  62  46 SW9       29.90S
WEST PLAINS    CLEAR     83  69  62 SW3       29.92F
ROLLA          CLEAR     80  71  74 SW5       29.87S
OSAGE BEACH    CLEAR     84  70  61 SW3       29.87R
BRANSON        PTCLDY    84  66  54 W3        29.93F

......SURROUNDING SGF CWA......

CITY           SKY/WX    TMP DP  RH WIND       PRES   REMARKS
CHANUTE        CLEAR     86  65  49 SW8       29.87F
PARSONS        CLEAR     84  70  62 S5        29.89S
COFFEYVILLE    CLEAR     85  63  47 S9        29.87S
EMPORIA        CLEAR     85  69  58 SW9       29.86F
GROVE OK       CLEAR     86  68  54 S5        29.90F
ROGERS AR      CLEAR     85  65  51 MISG      29.94S
SILOAM SPRINGS CLEAR     84  64  51 CALM      29.91S
HARRISON AR    CLEAR     82  69  64 CALM      29.94S
NEAR YELLVILLE MOCLDY    84  64  51 CALM      29.88F

......KANSAS AND MISSOURI......

CITY           SKY/WX    TMP DP  RH WIND       PRES   REMARKS
KANSAS CTY INT MOCLDY    84  74  71 SW5       29.85R HX  91
DOWNTOWN KC    PTCLDY    90  69  50 W7        29.83R HX  94
COLUMBIA       CLEAR     82  71  69 SW7       29.86R
SEDALIA        CLEAR     84  67  56 SW7       29.86R
ST JOSEPH      PTCLDY    84  76  76 SW6       29.83R HX  93
ST LOUIS       PTCLDY    90  66  45 W8        29.84S HX  92
SPIRIT OF STL  CLEAR     84  72  67 S5        29.83R
KIRKSVILLE     MOCLDY    82  71  69 W3        29.85R
WICHITA        PTCLDY    86  69  56 S8        29.87S HX  90
TOPEKA         MOCLDY    89  71  55 S5        29.84R HX  95
OLATHE         PTCLDY    86  69  56 SW3       29.85R HX  90

......TENNESSEE......

CITY           SKY/WX    TMP DP  RH WIND       PRES   REMARKS
MEMPHIS        PTCLDY    86  69  56 CALM      29.89F HX  90
NASHVILLE      PTCLDY    83  55  38 W3        29.92S

......ARKANSAS.......

CITY           SKY/WX    TMP DP  RH WIND       PRES   REMARKS
FAYETTEVILLE   CLEAR     81  71  71 CALM      29.93S
FT SMITH       PTCLDY    88  69  53 E7        29.86S HX  92
LITTLE ROCK    PTCLDY    89  67  47 SE7       29.88S HX  92

......OKLAHOMA.......

CITY           SKY/WX    TMP DP  RH WIND       PRES   REMARKS
TULSA          MOCLDY    88  69  53 SW6       29.86S HX  92
PONCA CITY     CLEAR     87  65  47 S3        29.87R
MCALESTER      MOCLDY    83  68  60 CALM      29.89R
OKLAHOMA CITY  MOCLDY    82  65  56 S8        29.89R

......IOWA............

CITY           SKY/WX    TMP DP  RH WIND       PRES   REMARKS
DES MOINES     MOCLDY    77  64  64 S5        29.79S
QUAD CITIES    MOCLDY    86  74  67 SW12      29.73R HX  94

......ILLINOIS........

CITY           SKY/WX    TMP DP  RH WIND       PRES   REMARKS
QUINCY         CLEAR     82  73  74 SW7       29.81R
CHICAGO        MOCLDY    86  71  60 SW18G31   29.66S HX  91



USA.gov is the U.S. government's official web portal to all federal, state and local government web resources and services.